GW7261 Weather Reports


time (UTC)temp
F
wind
direction
speed
knots
gust
knots
rain 1hr
in
rain 24hr
in
rain mn
in
humidity
%
barometer
mb
20260504034305 59 225 1.7 4.3 0.00 0.00 0.00 62 1005.2
20260504033705 59 225 4.3 7.0 0.00 0.00 0.00 61 1005.3
20260504033105 59 225 3.5 7.8 0.00 0.00 0.00 62 1005.3
20260504032504 59 180 2.6 5.2 0.00 0.00 0.00 62 1005.5
20260504031905 59 225 2.6 6.1 0.00 0.00 0.00 62 1005.5
20260504031304 59 225 2.6 4.3 0.00 0.00 0.00 61 1005.6
20260504030104 59 225 4.3 6.1 0.00 0.00 0.00 60 1005.6
20260504025504 60 225 3.5 4.3 0.00 0.00 0.00 60 1005.6
20260504024904 60 225 1.7 3.5 0.00 0.00 0.00 59 1005.7
20260504024304 60 225 3.5 5.2 0.00 0.00 0.00 59 1005.6
20260504023703 60 225 1.7 2.6 0.00 0.00 0.00 59 1005.6
20260504022503 61 225 3.5 6.1 0.00 0.00 0.00 57 1005.5
20260504021903 61 225 5.2 12.2 0.00 0.00 0.00 57 1005.4
20260504021302 61 225 3.5 7.0 0.00 0.00 0.00 57 1005.5
20260504020703 61 225 3.5 6.1 0.00 0.00 0.00 56 1005.4
20260504015502 62 225 6.1 13.9 0.00 0.00 0.00 56 1005.3
20260504014902 62 225 3.5 6.1 0.00 0.00 0.00 54 1005.1
20260504014302 62 225 3.5 5.2 0.00 0.00 0.00 54 1005.1
20260504013101 63 225 4.3 7.8 0.00 0.00 0.00 54 1005.0
20260504012501 63 225 3.5 7.0 0.00 0.00 0.00 53 1004.9
20260504010701 64 225 13.0 23.5 0.00 0.00 0.00 51 1004.8
20260504010101 64 225 8.7 16.5 0.00 0.00 0.00 51 1004.8
20260504005501 65 180 7.8 14.8 0.00 0.00 0.00 50 1004.7
20260504003700 65 225 4.3 7.8 0.00 0.00 0.00 50 1004.8
20260504003100 66 225 7.8 14.8 0.00 0.00 0.00 49 1004.8
20260504002500 66 225 5.2 10.4 0.00 0.00 0.00 48 1004.9
20260504000659 67 225 12.2 21.7 0.00 0.00 0.00 46 1004.8
20260504000059 68 225 9.6 13.0 0.00 0.00 0.00 46 1004.8
20260503234859 68 225 10.4 15.6 0.00 0.00 0.00 45 1004.9
20260503234259 68 225 9.6 20.9 0.00 0.00 0.00 44 1004.8
20260503233659 69 225 8.7 13.0 0.00 0.00 0.00 43 1004.8
20260503233058 69 225 7.0 9.6 0.00 0.00 0.00 45 1004.8
20260503232458 69 225 7.8 13.9 0.00 0.00 0.00 43 1004.8
20260503231858 69 270 7.0 9.6 0.00 0.00 0.00 42 1004.8
20260503231258 70 225 18.2 26.9 0.00 0.00 0.00 42 1004.8
20260503230658 71 225 9.6 13.0 0.00 0.00 0.00 42 1004.8
20260503230057 71 270 10.4 17.4 0.00 0.00 0.00 42 1004.7
20260503225457 70 225 13.0 18.2 0.00 0.00 0.00 41 1005.1
20260503224857 70 225 15.6 32.2 0.00 0.00 0.00 40 1005.1
20260503223657 67 225 14.8 24.3 0.00 0.00 0.00 44 1005.2
20260503223057 67 225 9.6 18.2 0.00 0.00 0.00 43 1005.3
20260503221856 70 225 8.7 16.5 0.00 0.00 0.00 40 1005.3
20260503221256 72 180 5.2 10.4 0.00 0.00 0.00 38 1005.2
20260503220656 70 225 6.1 11.3 0.00 0.00 0.00 39 1005.4
20260503220056 70 225 7.8 12.2 0.00 0.00 0.00 39 1005.4
20260503215456 69 270 8.7 15.6 0.00 0.00 0.00 40 1005.6
20260503214856 69 225 5.2 7.8 0.00 0.00 0.00 40 1005.7
20260503214255 68 180 7.8 12.2 0.00 0.00 0.00 41 1005.7
20260503213655 68 225 8.7 13.9 0.00 0.00 0.00 41 1005.8
20260503213055 68 225 7.0 12.2 0.00 0.00 0.00 41 1005.8
20260503212455 68 225 9.6 13.9 0.00 0.00 0.00 41 1006.0
20260503211855 68 225 7.0 11.3 0.00 0.00 0.00 42 1006.2
20260503211256 67 225 10.4 14.8 0.00 0.12 0.05 44 1006.4
20260503204855 65 225 21.7 33.0 0.01 0.12 0.05 41 1006.7
20260503203655 65 225 11.3 15.6 0.01 0.12 0.05 43 1007.1
20260503203054 65 225 10.4 14.8 0.01 0.12 0.05 42 1007.2
20260503202454 65 225 9.6 13.9 0.01 0.12 0.05 41 1007.6
20260503201854 64 225 13.9 21.7 0.01 0.12 0.05 43 1007.4
20260503201254 64 225 11.3 23.5 0.01 0.12 0.05 42 1007.5
20260503200654 64 225 11.3 24.3 0.01 0.12 0.05 43 1007.7
20260503200054 64 180 14.8 33.0 0.01 0.12 0.05 43 1007.6
20260503195454 64 225 20.9 29.5 0.01 0.12 0.05 43 1007.8
20260503194853 66 225 8.7 13.0 0.00 0.11 0.04 43 1007.6
20260503194253 65 180 7.0 10.4 0.00 0.11 0.04 45 1007.7
20260503193653 64 225 10.4 13.9 0.00 0.11 0.04 45 1007.8
20260503192453 64 225 8.7 12.2 0.00 0.11 0.04 47 1007.9
20260503191852 63 225 7.8 12.2 0.00 0.11 0.04 51 1007.9
20260503191252 62 225 9.6 14.8 0.00 0.11 0.04 52 1008.2
20260503190653 61 225 10.4 18.2 0.00 0.11 0.04 53 1008.2
20260503190052 61 225 12.2 18.2 0.00 0.11 0.04 53 1008.3
20260503185452 61 225 9.6 14.8 0.00 0.11 0.04 54 1008.6
20260503184852 60 225 9.6 17.4 0.00 0.11 0.04 54 1009.0
20260503184252 60 225 8.7 16.5 0.00 0.11 0.04 55 1008.9
20260503183052 59 225 7.0 12.2 0.00 0.11 0.04 57 1009.1
20260503182451 58 225 7.8 13.0 0.00 0.11 0.04 64 1009.0
20260503181851 57 225 9.6 19.1 0.00 0.11 0.04 63 1009.2
20260503181251 56 180 8.7 16.5 0.00 0.11 0.04 64 1009.5
20260503180050 56 225 4.3 7.8 0.00 0.11 0.04 65 1009.7
20260503175450 55 180 5.2 7.8 0.00 0.11 0.04 66 1009.9
20260503174850 54 225 10.4 15.6 0.00 0.11 0.04 70 1010.1
20260503174250 53 225 10.4 17.4 0.00 0.11 0.04 73 1010.5
20260503173650 52 225 12.2 17.4 0.00 0.11 0.04 74 1010.8
20260503173050 52 180 7.0 13.0 0.00 0.11 0.04 78 1011.0
20260503172449 51 225 11.3 20.9 0.00 0.11 0.04 81 1011.1
20260503170649 51 180 5.2 7.8 0.01 0.11 0.04 79 1011.8
20260503131243 49 225 10.4 14.8 0.00 0.09 0.03 61 1013.5
20260503110640 45 225 13.0 20.0 0.00 0.09 0.03 66 1013.6
20260503081235 44 270 7.8 13.9 0.00 0.09 0.03 62 1014.1
20260503080635 44 225 7.0 12.2 0.00 0.09 0.03 62 1014.1
20260503072433 44 180 5.2 8.7 0.00 0.09 0.03 60 1014.2
20260503071833 44 270 5.2 7.0 0.00 0.09 0.03 61 1014.2
20260503071233 44 225 5.2 9.6 0.00 0.09 0.03 61 1014.2
20260503070633 44 270 7.0 9.6 0.00 0.09 0.03 60 1014.3
20260503054831 44 225 4.3 7.0 0.00 0.09 0.03 62 1014.9
20260503054231 44 225 3.5 7.8 0.00 0.09 0.03 61 1014.9
20260503053631 44 225 2.6 3.5 0.00 0.09 0.03 63 1015.0
20260503052430 44 225 2.6 4.3 0.00 0.09 0.03 61 1015.1
20260503051830 44 225 1.7 2.6 0.00 0.09 0.03 63 1015.2
20260503051230 44 225 1.7 3.5 0.00 0.09 0.03 63 1015.1
20260503050630 44 225 1.7 2.6 0.00 0.09 0.03 64 1015.2
20260503045429 44 225 2.6 4.3 0.00 0.09 0.03 62 1015.2
20260503044229 44 225 2.6 5.2 0.00 0.09 0.03 63 1015.2
20260503043029 45 225 2.6 5.2 0.00 0.09 0.03 61 1015.2
20260503042429 45 225 2.6 5.2 0.00 0.09 0.03 62 1015.2
20260503041228 44 225 3.5 4.3 0.00 0.09 0.03 64 1015.4
20260503040629 44 225 3.5 5.2 0.00 0.09 0.03 65 1015.4
20260503040028 44 225 2.6 3.5 0.00 0.09 0.03 65 1015.4
20260503034828 43 225 0.9 1.7 0.00 0.09 0.03 69 1015.5